| time (UTC) | temp F | wind direction | speed knots | gust knots | rain 1hr in | rain 24hr in | rain mn in | humidity % | barometer mb |
| 20260507070025 | 46 | 43 | 7.8 | 16.5 | 0.00 | 0.00 | 0.02 | 90 | 1012.7 |
| 20260507065019 | 46 | 44 | 7.8 | 15.6 | 0.00 | 0.00 | 0.02 | 89 | 1012.7 |
| 20260507064016 | 46 | 34 | 7.0 | 14.8 | 0.00 | 0.00 | 0.02 | 90 | 1012.7 |
| 20260507063019 | 46 | 39 | 7.0 | 14.8 | 0.00 | 0.00 | 0.02 | 90 | 1012.7 |
| 20260507062017 | 46 | 36 | 7.8 | 15.6 | 0.00 | 0.00 | 0.02 | 91 | 1012.7 |
| 20260507061028 | 46 | 44 | 7.8 | 12.2 | 0.00 | 0.00 | 0.02 | 91 | 1012.3 |
| 20260507060017 | 46 | 46 | 7.8 | 12.2 | 0.00 | 0.00 | 0.02 | 91 | 1012.3 |
| 20260507054018 | 45 | 52 | 7.8 | 13.0 | 0.00 | 0.00 | 0.02 | 92 | 1012.3 |
| 20260507053023 | 45 | 53 | 7.8 | 12.2 | 0.00 | 0.00 | 0.02 | 92 | 1012.3 |
| 20260507051025 | 45 | 36 | 7.0 | 9.6 | 0.00 | 0.00 | 0.02 | 93 | 1011.8 |
| 20260507050024 | 45 | 28 | 7.0 | 10.4 | 0.00 | 0.00 | 0.02 | 93 | 1011.8 |
| 20260507045024 | 45 | 24 | 7.0 | 10.4 | 0.00 | 0.00 | 0.02 | 93 | 1011.8 |
| 20260507044028 | 45 | 28 | 7.0 | 9.6 | 0.00 | 0.00 | 0.02 | 93 | 1011.8 |
| 20260507042030 | 45 | 26 | 7.0 | 9.6 | 0.00 | 0.00 | 0.02 | 93 | 1011.8 |
| 20260507041029 | 45 | 14 | 4.3 | 9.6 | 0.01 | 0.00 | 0.02 | 93 | 1011.5 |
| 20260507040020 | 44 | 18 | 5.2 | 10.4 | 0.02 | 0.00 | 0.02 | 93 | 1011.5 |
| 20260507035018 | 44 | 20 | 5.2 | 10.4 | 0.02 | 0.00 | 0.02 | 93 | 1011.5 |
| 20260507034026 | 45 | 24 | 4.3 | 9.6 | 0.02 | 0.00 | 0.02 | 93 | 1011.5 |
| 20260507033015 | 45 | 17 | 4.3 | 9.6 | 0.02 | 0.00 | 0.02 | 93 | 1011.5 |
| 20260507032025 | 45 | 17 | 4.3 | 9.6 | 0.02 | 0.00 | 0.02 | 93 | 1011.5 |
| 20260507031022 | 45 | 40 | 5.2 | 10.4 | 0.01 | 0.00 | 0.01 | 93 | 1011.2 |
| 20260507025027 | 45 | 34 | 5.2 | 10.4 | 0.00 | 0.00 | 0.00 | 93 | 1011.2 |
| 20260507024013 | 45 | 42 | 5.2 | 10.4 | 0.00 | 0.00 | 0.00 | 93 | 1011.2 |
| 20260507023027 | 45 | 46 | 6.1 | 11.3 | 0.00 | 0.00 | 0.00 | 93 | 1011.2 |
| 20260507022027 | 45 | 43 | 5.2 | 10.4 | 0.00 | 0.00 | 0.00 | 93 | 1011.2 |
| 20260507021014 | 45 | 46 | 6.1 | 11.3 | 0.00 | 0.00 | 0.00 | 93 | 1010.6 |
| 20260507015022 | 45 | 41 | 7.0 | 12.2 | 0.00 | 0.00 | 0.00 | 93 | 1010.6 |
| 20260507014013 | 45 | 40 | 7.0 | 12.2 | 0.00 | 0.00 | 0.00 | 92 | 1010.6 |
| 20260507013028 | 45 | 43 | 7.0 | 11.3 | 0.00 | 0.00 | 0.00 | 92 | 1010.6 |
| 20260507012017 | 45 | 34 | 7.0 | 12.2 | 0.00 | 0.00 | 0.00 | 92 | 1010.6 |
| 20260507011021 | 45 | 33 | 7.0 | 12.2 | 0.00 | 0.00 | 0.00 | 92 | 1010.7 |
| 20260507005021 | 45 | 32 | 7.0 | 12.2 | 0.00 | 0.00 | 0.00 | 92 | 1010.7 |
| 20260507004016 | 45 | 27 | 7.0 | 11.3 | 0.00 | 0.00 | 0.00 | 93 | 1010.7 |
| 20260507003024 | 44 | 35 | 7.0 | 12.2 | 0.00 | 0.00 | 0.00 | 92 | 1010.7 |
| 20260507002021 | 45 | 28 | 7.0 | 12.2 | 0.00 | 0.00 | 0.00 | 92 | 1010.7 |
| 20260507001015 | 44 | 36 | 7.8 | 14.8 | 0.00 | 0.00 | 0.00 | 92 | 1010.4 |
| 20260506233032 | 45 | 28 | 7.8 | 13.9 | 0.00 | 0.00 | 0.71 | 93 | 1010.4 |
| 20260506232031 | 45 | 32 | 8.7 | 15.6 | 0.00 | 0.00 | 0.71 | 93 | 1010.4 |
| 20260506231018 | 45 | 35 | 7.8 | 17.4 | 0.00 | 0.00 | 0.71 | 92 | 1010.3 |
| 20260506225021 | 45 | 30 | 7.8 | 16.5 | 0.00 | 0.00 | 0.71 | 92 | 1010.3 |
| 20260506223026 | 45 | 32 | 9.6 | 17.4 | 0.00 | 0.00 | 0.71 | 92 | 1010.0 |
| 20260506222028 | 45 | 30 | 9.6 | 15.6 | 0.00 | 0.00 | 0.71 | 92 | 1010.0 |
| 20260506221026 | 45 | 27 | 9.6 | 16.5 | 0.00 | 0.00 | 0.71 | 93 | 1010.0 |
| 20260506220028 | 46 | 27 | 9.6 | 16.5 | 0.00 | 0.00 | 0.71 | 93 | 1010.0 |
| 20260506215028 | 46 | 28 | 9.6 | 16.5 | 0.00 | 0.00 | 0.71 | 93 | 1010.0 |
| 20260506214025 | 46 | 33 | 9.6 | 17.4 | 0.00 | 0.00 | 0.71 | 92 | 1010.0 |
| 20260506213029 | 47 | 24 | 9.6 | 15.6 | 0.00 | 0.00 | 0.71 | 92 | 1010.0 |
| 20260506211018 | 48 | 19 | 9.6 | 16.5 | 0.00 | 0.00 | 0.71 | 92 | 1009.1 |
| 20260506205018 | 49 | 18 | 9.6 | 16.5 | 0.00 | 0.00 | 0.71 | 93 | 1009.1 |
| 20260506204025 | 50 | 22 | 8.7 | 14.8 | 0.00 | 0.00 | 0.71 | 93 | 1009.1 |
| 20260506203025 | 50 | 26 | 8.7 | 14.8 | 0.00 | 0.00 | 0.71 | 94 | 1009.1 |
| 20260506202028 | 50 | 19 | 9.6 | 16.5 | 0.00 | 0.00 | 0.71 | 94 | 1009.1 |
| 20260506201016 | 50 | 6 | 7.0 | 12.2 | 0.00 | 0.00 | 0.71 | 94 | 1008.7 |
| 20260506200035 | 50 | 12 | 7.0 | 12.2 | 0.00 | 0.00 | 0.71 | 94 | 1008.7 |
| 20260506195024 | 50 | 15 | 7.0 | 12.2 | 0.00 | 0.00 | 0.71 | 94 | 1008.7 |
| 20260506194030 | 50 | 15 | 7.0 | 12.2 | 0.00 | 0.00 | 0.71 | 94 | 1008.7 |
| 20260506193025 | 50 | 6 | 7.0 | 11.3 | 0.00 | 0.00 | 0.71 | 94 | 1008.7 |
| 20260506185019 | 50 | 19 | 7.0 | 12.2 | 0.00 | 0.00 | 0.71 | 93 | 1008.2 |
| 20260506183029 | 51 | 14 | 7.0 | 11.3 | 0.00 | 0.00 | 0.71 | 93 | 1008.2 |
| 20260506182027 | 51 | 18 | 7.0 | 11.3 | 0.00 | 0.00 | 0.71 | 93 | 1008.2 |
| 20260506181027 | 51 | 27 | 6.1 | 10.4 | 0.00 | 0.00 | 0.71 | 93 | 1008.0 |
| 20260506175020 | 51 | 26 | 6.1 | 10.4 | 0.00 | 0.00 | 0.71 | 93 | 1008.0 |
| 20260506174016 | 51 | 35 | 6.1 | 11.3 | 0.00 | 0.00 | 0.71 | 93 | 1008.0 |
| 20260506173029 | 52 | 24 | 6.1 | 10.4 | 0.00 | 0.00 | 0.71 | 93 | 1008.0 |
| 20260506172023 | 52 | 28 | 6.1 | 11.3 | 0.00 | 0.00 | 0.71 | 93 | 1008.0 |
| 20260506171027 | 52 | 12 | 5.2 | 10.4 | 0.00 | 0.00 | 0.71 | 93 | 1007.8 |
| 20260506165021 | 52 | 15 | 5.2 | 11.3 | 0.00 | 0.00 | 0.71 | 93 | 1007.8 |
| 20260506164020 | 52 | 4 | 5.2 | 11.3 | 0.00 | 0.00 | 0.71 | 94 | 1007.8 |
| 20260506163023 | 52 | 14 | 5.2 | 10.4 | 0.00 | 0.00 | 0.71 | 94 | 1007.8 |
| 20260506162030 | 52 | 12 | 5.2 | 11.3 | 0.00 | 0.00 | 0.71 | 94 | 1007.8 |
| 20260506161024 | 52 | 11 | 6.1 | 13.0 | 0.00 | 0.00 | 0.71 | 94 | 1008.0 |
| 20260506155029 | 52 | 7 | 6.1 | 13.9 | 0.00 | 0.00 | 0.71 | 94 | 1008.0 |
| 20260506154029 | 52 | 12 | 6.1 | 13.9 | 0.00 | 0.00 | 0.71 | 94 | 1008.0 |
| 20260506153027 | 52 | 16 | 6.1 | 13.9 | 0.00 | 0.00 | 0.71 | 94 | 1008.0 |
| 20260506152028 | 52 | 14 | 6.1 | 13.9 | 0.00 | 0.00 | 0.71 | 94 | 1008.0 |
| 20260506151016 | 52 | 358 | 5.2 | 12.2 | 0.00 | 0.00 | 0.71 | 93 | 1007.8 |
| 20260506145025 | 52 | 6 | 5.2 | 12.2 | 0.00 | 0.00 | 0.71 | 95 | 1007.8 |
| 20260506144028 | 52 | 354 | 5.2 | 12.2 | 0.00 | 0.00 | 0.71 | 95 | 1007.8 |
| 20260506143025 | 52 | 2 | 5.2 | 12.2 | 0.00 | 0.00 | 0.71 | 95 | 1007.8 |
| 20260506142028 | 52 | 359 | 5.2 | 12.2 | 0.00 | 0.00 | 0.71 | 95 | 1007.8 |
| 20260506135026 | 53 | 25 | 5.2 | 13.0 | 0.00 | 0.00 | 0.71 | 94 | 1007.5 |
| 20260506133030 | 54 | 24 | 5.2 | 13.0 | 0.00 | 0.00 | 0.71 | 95 | 1007.5 |
| 20260506132022 | 53 | 30 | 5.2 | 12.2 | 0.01 | 0.00 | 0.71 | 96 | 1007.5 |
| 20260506131025 | 53 | 17 | 7.8 | 12.2 | 0.01 | 0.00 | 0.71 | 96 | 1007.0 |
| 20260506125019 | 51 | 16 | 7.8 | 13.0 | 0.02 | 0.00 | 0.71 | 96 | 1007.0 |
| 20260506124016 | 52 | 16 | 7.8 | 12.2 | 0.02 | 0.00 | 0.71 | 97 | 1007.0 |
| 20260506123019 | 51 | 20 | 7.8 | 12.2 | 0.03 | 0.00 | 0.71 | 96 | 1007.0 |
| 20260506122026 | 51 | 15 | 7.0 | 12.2 | 0.02 | 0.00 | 0.70 | 97 | 1007.0 |
| 20260506121022 | 51 | 26 | 7.0 | 13.0 | 0.02 | 0.00 | 0.70 | 97 | 1006.5 |
| 20260506115014 | 51 | 25 | 7.0 | 13.9 | 0.03 | 0.00 | 0.69 | 97 | 1006.5 |
| 20260506114024 | 51 | 23 | 7.0 | 13.9 | 0.03 | 0.00 | 0.69 | 96 | 1006.5 |
| 20260506113030 | 51 | 19 | 7.0 | 13.9 | 0.03 | 0.00 | 0.68 | 96 | 1006.5 |
| 20260506112015 | 51 | 16 | 7.0 | 13.0 | 0.04 | 0.00 | 0.68 | 96 | 1006.5 |
| 20260506111029 | 51 | 20 | 7.8 | 12.2 | 0.03 | 0.00 | 0.68 | 96 | 1006.0 |
| 20260506104030 | 52 | 17 | 7.8 | 12.2 | 0.03 | 0.00 | 0.65 | 96 | 1006.0 |
| 20260506103021 | 52 | 39 | 7.8 | 13.9 | 0.03 | 0.00 | 0.65 | 97 | 1005.9 |
| 20260506102028 | 51 | 36 | 7.8 | 13.0 | 0.03 | 0.00 | 0.64 | 97 | 1005.9 |
| 20260506100021 | 51 | 44 | 7.8 | 13.0 | 0.03 | 0.00 | 0.63 | 97 | 1005.9 |
| 20260506095022 | 51 | 42 | 7.0 | 13.0 | 0.03 | 0.00 | 0.63 | 97 | 1005.9 |
| 20260506094023 | 51 | 34 | 7.8 | 13.9 | 0.04 | 0.00 | 0.62 | 96 | 1005.9 |
| 20260506093025 | 51 | 42 | 7.8 | 13.0 | 0.04 | 0.00 | 0.62 | 97 | 1005.9 |
| 20260506092021 | 52 | 40 | 7.8 | 13.0 | 0.05 | 0.00 | 0.62 | 97 | 1005.9 |
| 20260506091025 | 52 | 44 | 7.0 | 12.2 | 0.05 | 0.00 | 0.61 | 97 | 1005.7 |
| 20260506085027 | 51 | 46 | 7.0 | 12.2 | 0.05 | 0.00 | 0.59 | 97 | 1005.7 |
| 20260506083029 | 51 | 41 | 7.0 | 12.2 | 0.05 | 0.00 | 0.58 | 97 | 1005.7 |
| 20260506082018 | 52 | 34 | 7.0 | 12.2 | 0.05 | 0.00 | 0.57 | 97 | 1005.7 |
| 20260506081016 | 51 | 35 | 7.0 | 13.0 | 0.06 | 0.00 | 0.57 | 97 | 1005.7 |
| 20260506073026 | 51 | 29 | 6.1 | 12.2 | 0.09 | 0.00 | 0.53 | 97 | 1005.7 |
| 20260506072015 | 51 | 34 | 7.0 | 12.2 | 0.09 | 0.00 | 0.52 | 97 | 1005.7 |
| 20260506071024 | 51 | 29 | 8.7 | 13.9 | 0.10 | 0.00 | 0.50 | 97 | 1005.7 |